Regional Weather Roundup
Issued by NWS Wilmington, NC

Home | Current Version | Previous Version | Text Only | Print | Product List | Glossary On
Versions: 1 2 3 4 5 6 7 8 9 10 11 12 13 14 15 16 17 18 19 20 21 22 23 24 25 26 27 28 29 30 31 32 33 34 35 36 37 38 39 40 41 42 43 44 45 46 47 48 49 50
000
ASUS42 KILM 041910
RWRILM
RWRILM
REGIONAL HOURLY WEATHER ROUNDUP
NATIONAL WEATHER SERVICE WILMINGTON NC
200 PM EST WED MAR 04 2015

NOTE: "FAIR" INDICATES FEW OR NO CLOUDS BELOW 12,000 FEET WITH NO
SIGNIFICANT WEATHER AND/OR OBSTRUCTIONS TO VISIBILITY.

...............WFO WILMINGTON COUNTY WARNING AREA...............

......COASTAL NC AND SC COUNTIES......

CITY           SKY/WX    TMP DP  RH WIND       PRES   REMARKS
WILMINGTON     SUNNY     76  64  66 S18G25    29.98F
SOUTHPORT      CLOUDY    61  59  92 SW10G18   30.03F FOG
N MYRTLE BEACH MOSUNNY   64  58  80 SW23G29   30.01F
MYRTLE BEACH   MOSUNNY   72  61  68 S18       30.04F

......INLAND NC AND SC COUNTIES.......

CITY           SKY/WX    TMP DP  RH WIND       PRES   REMARKS
LUMBERTON      PTSUNNY   77  62  59 SW22G29   29.96F
ELIZABETHTOWN  MOSUNNY   80  63  55 SW13G22   29.96F
WHITEVILLE     MOSUNNY   79  63  58 SW15G23   29.98F
FLORENCE       PTSUNNY   78  60  53 SW23G32   29.98F
DARLINGTON     MOSUNNY   77  63  61 SW20G31   29.97F

....................REST OF NORTH CAROLINA......................

.........EASTERN NC.........

CITY           SKY/WX    TMP DP  RH WIND       PRES   REMARKS
CAPE HATTERAS  FOG       56  56 100 SW13      29.99F VSB 1/4
JACKSONVILLE   CLOUDY    79  64  61 SW18      29.96F
MOREHEAD CITY  FOG       61  61 100 SW20G30   30.01F VSB 1/2
KENANSVILLE    PTSUNNY   77  61  57 SW13G18   29.95F
NEW BERN       CLOUDY    79  63  57 SW20G26   29.96F
ELIZABETH CITY PTSUNNY   73  62  68 SW14G25   29.93F

.........CENTRAL NC.........

CITY           SKY/WX    TMP DP  RH WIND       PRES   REMARKS
RALEIGH DURHAM PTSUNNY   68  58  70 SW18G30   29.92F
ROCKY MOUNT    SUNNY     67  59  75 SW13      29.94F
ROANOKE RAPIDS NOT AVBL
FAYETTEVILLE   MOSUNNY   77  61  57 SW25G37   29.94F
HOFFMAN        MOSUNNY   77  60  55 SW21G32   29.97F

.........WESTERN NC.........

CITY           SKY/WX    TMP DP  RH WIND       PRES   REMARKS
CHARLOTTE      PTSUNNY   63  55  75 S21G31    29.94F
GREENSBORO     PTSUNNY   72  57  59 SW22G31   29.86F
HICKORY        NOT AVBL
BOONE          NOT AVBL
ASHEVILLE      NOT AVBL

.....................REST OF SOUTH CAROLINA.....................

.........EASTERN SC.........

CITY           SKY/WX    TMP DP  RH WIND       PRES   REMARKS
CHARLESTON     MOSUNNY   80  60  50 SW20      30.03F
BEAUFORT MCAS  PTSUNNY   80  67  64 S13       30.03F
HILTON HEAD    SUNNY     75  64  69 S10       30.07F

.........CENTRAL SC.........

CITY           SKY/WX    TMP DP  RH WIND       PRES   REMARKS
COLUMBIA       MOSUNNY   81  58  45 W26G33    29.97F
ORANGEBURG     PTSUNNY   79  58  48 SW22G29   29.99F
SUMTER SHAW    NOT AVBL

.........WESTERN SC.........

CITY           SKY/WX    TMP DP  RH WIND       PRES   REMARKS
GREENVILLE     NOT AVBL
ROCK HILL      CLOUDY    62  57  83 SW15G23   29.97F
ANDERSON       PTSUNNY   66  59  78 SW21      29.98F
CLEMSON        NOT AVBL
GREENWOOD      CLOUDY    64  59  83 SW6       30.01F


...................COASTAL AND OFFSHORE REPORTS..................

................LOCAL PIERS AND NC RESERVE................


STATION/POSITION TIME  SKY/WX   TEMP    WIND        PRES    VSBY
                                AIR SEA DIR/SP/G
                 (UTC)          (F)     (DEG/KT/KT) (MB)    (MI)
JOHNY MRCER PIER 1900            66 51  200/ 21/ 26 1015.3F
NC RESRV MASNBRO 1800            72     220/  9     1017.0S
OCEAN CREST PIER 1900            55 47  180/ 15/ 17 1015.9F
SPRINGMAID  PIER 1900            53 47  200/ 10/ 11 1016.7F


................COASTAL AND OFFSHORE BUOYS................


STATION/POSITION TIME  SKY/WX   TEMP    WIND        PRES    VSBY
                                AIR SEA DIR/SP/G
                 (UTC)          (F)     (DEG/KT/KT) (MB)    (MI)
DIMNDSHOAL 41025 NOT AVBL
CAPE LOOKOUT     1800            59     230/ 11/ 14 1017.3F
ONSLOW BAY 41036 NOT AVBL
5 WRITEBCH 41038 NOT AVBL
MASONBORO  41110 1800               46                N/A
WVE H/P(F/S)=  4/ 7 WND WVE H/P(F/S)=  3/ 7

WILM HARBR 41108 1900               49                N/A
WVE H/P(F/S)=  4/ 6 WND WVE H/P(F/S)=  5/ 6

27WRITEBCH 41037 NOT AVBL
FRYING PAN 41013 1900            67 62  220/ 16/ 17 1018.4F
WVE H/P(F/S)=  5/ 6 WND WVE H/P(F/S)=  5/ 6 SWL H/P/D(F/S/D)=  3/120/ 9

SUNST NRSH 41024 1800            54     240/ 14/ 17   N/A
CAPRS NRSH 41029 1800            53     240/  8/ 10   N/A
EDISTO     41004 1900            69 69  220/ 16/ 19 1017.8F
WVE H/P(F/S)=  5/ 6 WND WVE H/P(F/S)=  5/ 6 SWL H/P/D(F/S/D)=  2/ 9



..........OFFSHORE BUOYS BEYOND 100 NM OFFSHORE...........
.....IN A TRIANGLE---HAT TO BERMUDA TO BAHAMAS TO HAT.....


STATION/POSITION TIME  SKY/WX   TEMP    WIND        PRES    VSBY
                                AIR SEA DIR/SP/G
                 (UTC)          (F)     (DEG/KT/KT) (MB)    (MI)
150E HAT   41001 NOT AVBL
W BERMUDA  41048 1754            69 69  200/ 12/ 14 1023.9F
WVE H/P(F/S)=  5/11 WND WVE H/P(F/S)=  2/ 5 SWL H/P/D(F/S/D)=  5/ 70/11

ATLANTIC S 41049 1834            73 74   70/ 12/ 14 1024.3R
WVE H/P(F/S)=  8/11 WND WVE H/P(F/S)=  3/ 5 SWL H/P/D(F/S/D)=  7/ 20/11

E BAHAMAS  41046 1752            76 78  100/ 16/ 17 1021.6F
WVE H/P(F/S)=  7/11 WND WVE H/P(F/S)=  3/ 5 SWL H/P/D(F/S/D)=  5/ 80/11

NE BAHAMAS 41047 1840            74 74  120/ 10/ 14 1023.2F
WVE H/P(F/S)=  6/ 9 WND WVE H/P(F/S)=  2/ 4 SWL H/P/D(F/S/D)=  7/ 50/ 9

120E CANVRL41010 1900            74 75  170/ 14/ 16 1021.2F
WVE H/P(F/S)=  5/ 8 WND WVE H/P(F/S)=  3/ 5 SWL H/P/D(F/S/D)=  3/ 80/ 8


END


USA.gov is the U.S. government's official web portal to all federal, state and local government web resources and services.